Meteopurmerend
purmerend
Purmerend - Baaienwijk



My webcam  My webcam


Onweer radar Meer informatie blitzortung!


Regen radar Meer informatie rain snow radar


Bezoek onze andere website:

CandyAppleRed WebdesignWebdesign Purmerend Candy Apple Red

MeteopurmerendBlog

Template documentation
and downloads



Het weer levert geen direct gevaar op.    Er zijn geen waarschuwingen afgegeven.

15 daagse weersverwachting Fredrikstad (NO)

  • Overzicht
  • Per uur
  • 15 dagen
  • Extra
  • Vergelijk
  • Kaarten
  • Dagkaart
  • Meer »
  • Info
  • Statistieken
  • Directe link
    Temp 6h Neerslag Wind  
 04:57     21:50    Daglengte: 16:53 Vandaag
08:00
19°
7.0 mm
3
warningclass
14:00
20°
6.7 mm
5
20:00
18°
2.7 mm
4
warningclass
 04:59     21:48    Daglengte: 16:49 Morgen
02:00
17°
8.0 mm
2
08:00
17°
3.9 mm
4
warningclass
14:00
18°
15.8 mm
4
20:00
17°
19.6 mm
5
 05:02     21:45    Daglengte: 16:43 Vrijdag 30 Jul
02:00
17°
19.3 mm
4
08:00
17°
19.7 mm
4
14:00
23°
4.6 mm
2
20:00
21°
 
3
 05:04     21:43    Daglengte: 16:39 Zaterdag 31 Jul
02:00
17°
 
5
Locatie info
Region: Østfold
Latitude: 59.2141°N
Longitude: 10.9382°E
6 masl
Postcode: 1607
Temp/Neerslag /Baro Onweer/Dauwpunt
    Temp Baro 1h Neerslag Dauwpunt Wind UV Bewolking  
 04:57     21:50    Daglengte: 16:53 Vandaag
06:00
19°
1005.6 hPa 4.6 mm
48%
17.8°
3
Windvlaag: 2.2 m/s
77%
07:00
19°
1005.6 hPa 1.0 mm
82%
17.6°
3
Windvlaag: 2 m/s
78% warningclass
08:00
19°
1005.5 hPa 1.3 mm
82%
17.5°
3
Windvlaag: 3.2 m/s
86% warningclass
09:00
19°
1005.6 hPa 1.4 mm
82%
17.2°
4
Windvlaag: 4.1 m/s
86% warningclass
10:00
19°
1005.4 hPa 1.6 mm
82%
17.4°
4
Windvlaag: 6 m/s
86% warningclass
11:00
19°
1005.6 hPa 1.3 mm
82%
17.3°
5
Windvlaag: 7.8 m/s
80% warningclass
12:00
19°
1005.7 hPa 1.1 mm
82%
16.6°
5
Windvlaag: 8.3 m/s
85%
13:00
19°
1005.5 hPa 1.2 mm
82%
16.0°
5
Windvlaag: 8 m/s
82%
14:00
20°
1005.5 hPa
81%
15.9°
5
Windvlaag: 8.3 m/s
63%
15:00
20°
1005.3 hPa
75%
15.1°
5
Windvlaag: 8.5 m/s
74%
16:00
19°
1005.1 hPa
73%
14.9°
5
Windvlaag: 8.5 m/s
80%
17:00
19°
1004.9 hPa
81%
14.9°
5
Windvlaag: 7.2 m/s
50%
18:00
19°
1004.5 hPa 1.1 mm
82%
15.5°
4
Windvlaag: 6.9 m/s
64%
19:00
19°
1004.3 hPa 1.6 mm
82%
15.7°
4
Windvlaag: 6.3 m/s
61%
20:00
18°
1004.0 hPa
75%
15.8°
4
Windvlaag: 6.1 m/s
59%
21:00
18°
1004.0 hPa 1.0 mm
75%
15.0°
3
Windvlaag: 5.9 m/s
56%
22:00
18°
1003.6 hPa
80%
15.0°
3
Windvlaag: 5.1 m/s
34%
23:00
18°
1003.5 hPa 1.4 mm
81%
15.5°
2
Windvlaag: 3.7 m/s
46% warningclass
 04:59     21:48    Daglengte: 16:49 Morgen
00:00
17°
1003.2 hPa 2.1 mm
82%
15.8°
2
Windvlaag: 3.7 m/s
56%
01:00
17°
1002.6 hPa 1.8 mm
81%
16.0°
3
Windvlaag: 3.4 m/s
59%
02:00
17°
1002.1 hPa 1.7 mm
80%
16.2°
2
Windvlaag: 4.3 m/s
39%
03:00
17°
1001.6 hPa
34%
16.3°
2
Windvlaag: 4.6 m/s
44%
04:00
17°
1001.2 hPa
36%
16.1°
2
Windvlaag: 4.1 m/s
28%
05:00
17°
1000.8 hPa 1.2 mm
69%
15.8°
2
Windvlaag: 3.8 m/s
52%
06:00
17°
1000.5 hPa
73%
15.6°
3
Windvlaag: 3.3 m/s
32%
07:00
17°
1000.1 hPa 1.3 mm
69%
15.5°
4
Windvlaag: 4 m/s
67% warningclass
08:00
17°
999.6 hPa 1.4 mm
81%
15.3°
4
Windvlaag: 5.1 m/s
42% warningclass
09:00
18°
999.5 hPa 1.9 mm
82%
15.5°
4
Windvlaag: 4.8 m/s
63% warningclass
10:00
18°
999.1 hPa 3.0 mm
82%
15.7°
4
Windvlaag: 7.8 m/s
78% warningclass
11:00
18°
998.8 hPa 2.7 mm
82%
15.8°
4
Windvlaag: 9.1 m/s
85%
12:00
18°
998.3 hPa 2.5 mm
82%
15.6°
4
Windvlaag: 8.6 m/s
54%
13:00
18°
997.9 hPa 2.6 mm
82%
15.5°
4
Windvlaag: 8.3 m/s
77%
14:00
18°
997.6 hPa 3.0 mm
82%
15.8°
4
Windvlaag: 7.9 m/s
79%
15:00
18°
997.3 hPa 3.0 mm
82%
15.0°
5
Windvlaag: 8.3 m/s
74%
16:00
17°
997.0 hPa 3.5 mm
82%
13.4°
5
Windvlaag: 8.2 m/s
85%
17:00
17°
996.6 hPa 3.7 mm
82%
13.2°
5
Windvlaag: 6.9 m/s
77%
18:00
17°
996.5 hPa 3.5 mm
82%
12.9°
5
Windvlaag: 6.7 m/s
82%
19:00
17°
996.1 hPa 3.1 mm
82%
12.2°
5
Windvlaag: 6.9 m/s
72%
20:00
17°
995.7 hPa 2.9 mm
80%
11.3°
5
Windvlaag: 7 m/s
75%
21:00
17°
995.4 hPa
75%
11.9°
4
Windvlaag: 6.6 m/s
72%
22:00
17°
995.2 hPa
67%
13.1°
4
Windvlaag: 5.9 m/s
72%
23:00
17°
994.2 hPa 4.9 mm
80%
13.4°
4
Windvlaag: 5 m/s
88%
 05:02     21:45    Daglengte: 16:43 Vrijdag 30 Jul
00:00
17°
993.8 hPa 4.9 mm
38%
14.3°
4
Windvlaag: 4.2 m/s
95% warningclass
01:00
17°
993.5 hPa 4.9 mm
51%
14.5°
4
Windvlaag: 4.2 m/s
97% warningclass
02:00
17°
993.0 hPa 4.7 mm
48%
14.0°
4
Windvlaag: 4.9 m/s
93%
03:00
16°
992.5 hPa
84%
14.2°
4
Windvlaag: 4.7 m/s
94%
04:00
16°
992.0 hPa
46%
14.0°
3
Windvlaag: 3.6 m/s
69%
05:00
16°
991.7 hPa 4.6 mm
97%
13.8°
3
Windvlaag: 2.9 m/s
92%
06:00
16°
991.6 hPa 4.9 mm
100%
14.3°
3
Windvlaag: 2.3 m/s
83%
07:00
16°
991.6 hPa 5.3 mm
100%
14.9°
3
Windvlaag: 1.9 m/s
83% warningclass
08:00
17°
991.5 hPa 4.9 mm
91%
15.0°
4
Windvlaag: 1.9 m/s
75%
09:00
19°
992.5 hPa
36%
15.7°
4
Windvlaag: 7.4 m/s
19%
10:00
20°
992.8 hPa
24%
15.1°
4
Windvlaag: 10.1 m/s
15%
11:00
21°
993.3 hPa
30%
13.8°
3
Windvlaag: 9.3 m/s
12%
12:00
22°
993.5 hPa
79%
13.2°
3
Windvlaag: 9.6 m/s
32%
13:00
23°
993.9 hPa
90%
13.5°
2
Windvlaag: 9 m/s
9%
14:00
23°
994.2 hPa 4.6 mm
94%
12.9°
2
Windvlaag: 7.2 m/s
14%
15:00
23°
994.3 hPa
88%
13.1°
3
Windvlaag: 4.9 m/s
3%
16:00
23°
994.5 hPa
76%
12.9°
4
Windvlaag: 5 m/s
2%
17:00
22°
994.6 hPa
25%
14.2°
5
Windvlaag: 5 m/s
0%
18:00
22°
994.8 hPa
21%
15.3°
5
Windvlaag: 4.7 m/s
0%
19:00
21°
994.6 hPa
21%
15.7°
4
Windvlaag: 4.8 m/s
25%
20:00
21°
994.5 hPa
21%
16.1°
3
Windvlaag: 4.6 m/s
32%
21:00
20°
994.7 hPa
21%
16.5°
4
Windvlaag: 5 m/s
34%
22:00
19°
994.7 hPa
21%
16.8°
4
Windvlaag: 6.7 m/s
30%
23:00
18°
994.7 hPa
21%
16.9°
4
Windvlaag: 5.8 m/s
58%
 05:04     21:43    Daglengte: 16:39 Zaterdag 31 Jul
00:00
18°
994.8 hPa
21%
16.8°
4
Windvlaag: 6.3 m/s
80%
01:00
18°
994.8 hPa
21%
16.1°
4
Windvlaag: 10.5 m/s
70%
02:00
17°
994.5 hPa
22%
14.1°
5
Windvlaag: 11.3 m/s
68%
Temp/Neerslag /Baro Onweer/Dauwpunt
    Temp Baro Neerslag Dauwpunt Wind Bewolking  
 04:57     21:50    Daglengte: 16:53 Vandaag
08:00
19°
1005.5 hPa 7.0 mm 17.5°
3
86% warningclass
11:00
19°
1005.6 hPa 4.4 mm 17.3°
5
80% warningclass
14:00
20°
1005.5 hPa 2.3 mm 15.9°
5
63%
17:00
19°
1004.9 hPa   14.9°
5
50%
20:00
18°
1004.0 hPa 2.7 mm 15.8°
4
59% warningclass
23:00
18°
1003.5 hPa 2.4 mm 15.5°
2
46% warningclass
 04:59     21:48    Daglengte: 16:49 Morgen
02:00
17°
1002.1 hPa 5.6 mm 16.2°
2
39%
05:00
17°
1000.8 hPa 1.2 mm 15.8°
2
52%
08:00
17°
999.6 hPa 2.7 mm 15.3°
4
42% warningclass
11:00
18°
998.8 hPa 7.7 mm 15.8°
4
85%
14:00
18°
997.6 hPa 8.1 mm 15.8°
4
79%
17:00
17°
996.6 hPa 10.2 mm 13.2°
5
77%
20:00
17°
995.7 hPa 9.4 mm 11.3°
5
75%
23:00
17°
994.2 hPa 4.9 mm 13.4°
4
88%
 05:02     21:45    Daglengte: 16:43 Vrijdag 30 Jul
02:00
17°
993.0 hPa 14.4 mm 14.0°
4
93%
05:00
16°
991.7 hPa 4.6 mm 13.8°
3
92%
08:00
17°
991.5 hPa 15.1 mm 15.0°
4
75%
11:00
21°
993.3 hPa   13.8°
3
12%
14:00
23°
994.2 hPa 4.6 mm 12.9°
2
14%
17:00
22°
994.6 hPa   14.2°
5
0%
20:00
21°
994.5 hPa   16.1°
3
32%
23:00
18°
994.7 hPa   16.9°
4
58%
 05:04     21:43    Daglengte: 16:39 Zaterdag 31 Jul
02:00
17°
994.5 hPa   14.1°
5
68%
05:00
17°
993.7 hPa 31.8 mm 13.3°
5
1%
08:00
16°
993.6 hPa 31.8 mm 12.7°
4
1%
11:00
17°
994.0 hPa 31.9 mm 12.9°
5
1%
14:00
15°
995.0 hPa 32.1 mm 12.2°
6
1%
17:00
15°
995.6 hPa 32.3 mm 11.5°
4
1%
20:00
17°
995.7 hPa 32.3 mm 11.2°
3
1%
23:00
14°
996.4 hPa 32.3 mm 10.5°
4
1%
 05:06     21:41    Daglengte: 16:35 Zondag 01 Aug
02:00
12°
996.6 hPa 32.3 mm 10.4°
3
1%
05:00
12°
996.7 hPa 32.3 mm 10.4°
3
0%
08:00
14°
997.2 hPa 32.3 mm 9.6°
4
1%
11:00
17°
997.9 hPa 32.3 mm 9.9°
3
1%
14:00
17°
999.3 hPa 32.4 mm 10.2°
3
1%
17:00
18°
999.5 hPa 32.4 mm 10.3°
3
1%
20:00
17°
1000.3 hPa 32.4 mm 11.3°
3
1%
23:00
13°
1001.6 hPa 32.5 mm 10.3°
3
0%
 05:08     21:38    Daglengte: 16:30 Maandag 02 Aug
02:00
12°
1002.7 hPa 32.5 mm 8.8°
3
0%
05:00
13°
1003.9 hPa 32.5 mm 8.0°
3
1%
08:00
14°
1005.2 hPa 32.5 mm 6.2°
3
1%
11:00
17°
1006.2 hPa 32.5 mm 4.0°
2
1%
14:00
19°
1006.3 hPa 32.5 mm 5.0°
2
1%
17:00
19°
1006.4 hPa 32.5 mm 5.4°
3
0%
20:00
17°
1006.3 hPa 32.5 mm 9.7°
3
1%
23:00
15°
1006.5 hPa 32.7 mm 12.2°
2
1%
 05:10     21:36    Daglengte: 16:26 Dinsdag 03 Aug
02:00
15°
1006.9 hPa 35.0 mm 13.3°
4
1%
05:00
14°
1006.5 hPa 35.4 mm 12.5°
4
1%
08:00
15°
1006.7 hPa 35.4 mm 12.9°
4
1%
11:00
17°
1006.5 hPa 35.8 mm 12.0°
3
1%
14:00
18°
1006.4 hPa 37.3 mm 13.8°
2
1%
17:00
18°
1006.4 hPa 38.4 mm 13.6°
1
1%
20:00
17°
1006.9 hPa 39.8 mm 14.3°
4
1%
23:00
15°
1008.0 hPa 40.1 mm 13.3°
2
1%
 05:13     21:33    Daglengte: 16:20 Woensdag 04 Aug
02:00
14°
1008.5 hPa 40.3 mm 12.7°
1
0%
05:00
13°
1008.6 hPa   12.0°
2
0%
08:00
15°
1009.4 hPa 81.1 mm 13.2°
2
0%
14:00
20°
1009.0 hPa 81.5 mm 12.3°
4
1%
20:00
18°
1009.2 hPa 81.9 mm 12.5°
6
1%
 05:15     21:31    Daglengte: 16:16 Donderdag 05 Aug
02:00
16°
1008.5 hPa 82.4 mm 13.0°
3
1%
08:00
15°
1006.8 hPa 85.3 mm 12.6°
4
1%
14:00
20°
1004.3 hPa 85.9 mm 8.0°
3
1%
20:00
18°
1003.2 hPa 86.0 mm 10.6°
3
1%
 05:17     21:28    Daglengte: 16:11 Vrijdag 06 Aug
02:00
14°
1003.2 hPa 86.0 mm 9.5°
1
1%
08:00
16°
1002.5 hPa 86.1 mm 10.2°
2
1%
14:00
20°
1002.0 hPa 86.1 mm 10.5°
1
1%
20:00
18°
1000.9 hPa 86.3 mm 13.7°
0
1%
 05:19     21:26    Daglengte: 16:07 Zaterdag 07 Aug
02:00
15°
1004.4 hPa 1.5 mm 12.8°
1
72%
08:00
15°
1004.1 hPa 1.9 mm 12.8°
1
68%
14:00
18°
1003.7 hPa 2.4 mm 12.8°
1
64%
20:00
17°
1003.5 hPa 1.2 mm 13.3°
1
66%
 05:22     21:23    Daglengte: 16:01 Zondag 08 Aug
02:00
15°
1004.7 hPa 0.8 mm 12.7°
1
67%
08:00
15°
1004.9 hPa 1.4 mm 12.6°
1
62%
14:00
18°
1005.4 hPa 2.3 mm 13.1°
3
61%
20:00
17°
1005.7 hPa 2.8 mm 13.1°
3
62%
 05:24     21:21    Daglengte: 15:57 Maandag 09 Aug
02:00
15°
1007.4 hPa 0.9 mm 12.7°
2
64%
08:00
16°
1008.1 hPa 1.2 mm 12.7°
1
62%
14:00
19°
1008.9 hPa 1.4 mm 12.9°
3
61%
20:00
18°
1009.0 hPa 1.1 mm 13.5°
3
53%
 05:26     21:18    Daglengte: 15:52 Dinsdag 10 Aug
02:00
15°
1010.6 hPa 0.8 mm 12.4°
1
63%
08:00
16°
1011.3 hPa 0.5 mm 12.2°
1
63%
14:00
19°
1011.6 hPa 1.2 mm 12.6°
2
67%
20:00
18°
1011.5 hPa 0.9 mm 13.1°
2
66%
 05:29     21:15    Daglengte: 15:46 Woensdag 11 Aug
02:00
15°
1012.6 hPa 0.1 mm 12.3°
1
61%
08:00
16°
1012.5 hPa 0.2 mm 12.1°
0
56%
14:00
19°
1012.1 hPa 0.4 mm 12.4°
2
55%
20:00
18°
1011.1 hPa 0.8 mm 13.3°
2
56%
 05:31     21:13    Daglengte: 15:42 Donderdag 12 Aug
02:00
15°
1011.4 hPa 0.6 mm 12.5°
1
59%
  CAPE Lifted Index Hail Supercell Tornado SRH 3km CL BTM PRES CL TOP PRES Swiss DWD icon SMHI TS
 04:57     21:50    Daglengte: 16:53 Vandaag
06:00 423 J/kg -1.6 K 0 % 0 % 0 % 0 m²/s² 0 0 -1.33 95
07:00 480 J/kg -1.9 K 0 % 0 % 0 % 0 m²/s² 0 0 -1.21 95
08:00 632 J/kg -2.2 K 0 % 0 % 0 % 0 m²/s² 0 0 -1.15 95
09:00 761 J/kg -2.7 K 0 % 0 % 0 % 0 m²/s² 0 0 -1.5 95
10:00 981 J/kg -3.5 K 0 % 0 % 0 % 0 m²/s² 0 0 -2.3 95
11:00 1004 J/kg -3.4 K 0 % 0 % 0 % 0 m²/s² 0 0 -2.05 95
12:00 884 J/kg -2.8 K 0 % 0 % 0 % 0 m²/s² 0 0 -1.72 80
13:00 660 J/kg -2.3 K 0 % 0 % 0 % 0 m²/s² 0 0 -0.83 80
14:00 480 J/kg -1.9 K 0 % 0 % 0 % 0 m²/s² 0 0 0.23 3
15:00 442 J/kg -1.9 K 0 % 0 % 0 % 0 m²/s² 0 0 -0.22 3
16:00 448 J/kg -2.2 K 0 % 0 % 0 % 0 m²/s² 0 0 -1.99 3
17:00 385 J/kg -1.8 K 0 % 0 % 0 % 0 m²/s² 0 0 -1.38 3
18:00 564 J/kg -2.4 K 0 % 0 % 0 % 0 m²/s² 0 0 -1.65 80
19:00 670 J/kg -2.4 K 0 % 0 % 0 % 0 m²/s² 0 0 -1.65 61
20:00 686 J/kg -2.8 K 0 % 0 % 0 % 0 m²/s² 0 0 -2.2 3
21:00 518 J/kg -2.2 K 0 % 0 % 0 % 0 m²/s² 0 0 -1.45 80
22:00 236 J/kg -1.2 K 0 % 0 % 0 % 0 m²/s² 0 0 0.09 80
23:00 195 J/kg -0.8 K 0 % 0 % 0 % 0 m²/s² 0 0 0.55 95
 04:59     21:48    Daglengte: 16:49 Morgen
00:00 243 J/kg -0.9 K 0 % 0 % 0 % 0 m²/s² 0 0 0.03 80
01:00 231 J/kg -0.9 K 0 % 0 % 0 % 0 m²/s² 0 0 -0.03 80
02:00 261 J/kg -1.0 K 0 % 0 % 0 % 0 m²/s² 0 0 -0.01 2
03:00 322 J/kg -1.5 K 0 % 0 % 0 % 0 m²/s² 0 0 -0.21 2
04:00 397 J/kg -1.5 K 0 % 0 % 0 % 0 m²/s² 0 0 -0.27 3
05:00 393 J/kg -1.3 K 0 % 0 % 0 % 0 m²/s² 0 0 0.2 80
06:00 447 J/kg -2.0 K 0 % 0 % 0 % 0 m²/s² 0 0 -0.89 80
07:00 579 J/kg -3.4 K 0 % 0 % 0 % 0 m²/s² 0 0 -2.17 80
08:00 931 J/kg -3.7 K 0 % 0 % 0 % 0 m²/s² 0 0 -2.68 80
09:00 1110 J/kg -4.2 K 0 % 0 % 0 % 0 m²/s² 0 0 -2.94 80
10:00 975 J/kg -4.1 K 0 % 0 % 0 % 0 m²/s² 0 0 -3.71 80
11:00 952 J/kg -4.0 K 0 % 0 % 0 % 0 m²/s² 0 0 -1.87 80
12:00 958 J/kg -3.8 K 0 % 0 % 0 % 0 m²/s² 0 0 -1.97 80
13:00 792 J/kg -3.4 K 0 % 0 % 0 % 0 m²/s² 0 0 -0.52 80
14:00 802 J/kg -3.2 K 0 % 0 % 0 % 0 m²/s² 0 0 -1.31 80
15:00 484 J/kg -2.1 K 0 % 0 % 0 % 0 m²/s² 0 0 -1.14 80
16:00 133 J/kg -0.2 K 0 % 0 % 0 % 0 m²/s² 0 0 0.85 80
17:00 394 J/kg -1.9 K 0 % 0 % 0 % 0 m²/s² 0 0 -1.12 80
18:00 429 J/kg -1.8 K 0 % 0 % 0 % 0 m²/s² 0 0 -1.08 80
19:00 248 J/kg -1.0 K 0 % 0 % 0 % 0 m²/s² 0 0 0.26 80
20:00 353 J/kg -1.4 K 0 % 0 % 0 % 0 m²/s² 0 0 -0.08 3
21:00 314 J/kg -1.1 K 0 % 0 % 0 % 0 m²/s² 0 0 0.04 3
22:00 414 J/kg -1.4 K 0 % 0 % 0 % 0 m²/s² 0 0 -0.71 3
23:00 553 J/kg -2.0 K 0 % 0 % 0 % 0 m²/s² 0 0 -1.76 3
 05:02     21:45    Daglengte: 16:43 Vrijdag 30 Jul
00:00 607 J/kg -2.7 K 0 % 0 % 0 % 0 m²/s² 0 0 -2.49 3
01:00 499 J/kg -2.6 K 0 % 0 % 0 % 0 m²/s² 0 0 -2.42 3
02:00 142 J/kg -0.3 K 0 % 0 % 0 % 0 m²/s² 0 0 0 3
03:00 83 J/kg 0.2 K 0 % 0 % 0 % 0 m²/s² 0 0 1.28 3
04:00 127 J/kg -0.2 K 0 % 0 % 0 % 0 m²/s² 0 0 0.22 3
05:00 47 J/kg 0.8 K 0 % 0 % 0 % 0 m²/s² 0 0 0.92 80
06:00 35 J/kg 1.9 K 0 % 0 % 0 % 0 m²/s² 0 0 2.02 80
07:00 37 J/kg 1.8 K 0 % 0 % 0 % 0 m²/s² 0 0 2.49 95
08:00 1 J/kg 1.4 K 0 % 0 % 0 % 0 m²/s² 0 0 2.33 80
09:00 2 J/kg 0.8 K 0 % 0 % 0 % 0 m²/s² 0 0 2.87 2
10:00 5 J/kg 1.0 K 0 % 0 % 0 % 0 m²/s² 0 0 3.13 2
11:00 0 J/kg 1.9 K 0 % 0 % 0 % 0 m²/s² 0 0 2.89 2
12:00 2 J/kg 1.6 K 0 % 0 % 0 % 0 m²/s² 0 0 2.92 2
13:00 0 J/kg 1.3 K 0 % 0 % 0 % 0 m²/s² 0 0 3.94 2
14:00 0 J/kg 1.3 K 0 % 0 % 0 % 0 m²/s² 0 0 3.94 3
15:00 0 J/kg 0.9 K 0 % 0 % 0 % 0 m²/s² 0 0 3.03 1
16:00 84 J/kg 0.1 K 0 % 0 % 0 % 0 m²/s² 0 0 2.38 1
17:00 151 J/kg -0.4 K 0 % 0 % 0 % 0 m²/s² 0 0 3.29 0
18:00 476 J/kg -1.7 K 0 % 0 % 0 % 0 m²/s² 0 0 3.04 1
19:00 795 J/kg -2.9 K 0 % 0 % 0 % 0 m²/s² 0 0 2.08 3
20:00 972 J/kg -3.7 K 0 % 0 % 0 % 0 m²/s² 0 0 1.04 3
21:00 945 J/kg -3.9 K 0 % 0 % 0 % 0 m²/s² 0 0 0.6 3
22:00 734 J/kg -3.2 K 0 % 0 % 0 % 0 m²/s² 0 0 1.3 3
23:00 492 J/kg -2.3 K 0 % 0 % 0 % 0 m²/s² 0 0 2.32 3
 05:04     21:43    Daglengte: 16:39 Zaterdag 31 Jul
00:00 391 J/kg -2.2 K 0 % 0 % 0 % 0 m²/s² 0 0 2.3 3
01:00 197 J/kg -1.7 K 0 % 0 % 0 % 0 m²/s² 0 0 2.68 3
02:00 0 J/kg -0.5 K 0 % 0 % 0 % 0 m²/s² 0 0 3.25 3
Temp Baro Wind Neerslag
  EWN Forecast EWN WRFDA DWD ICON FMI HIRLAM MET Norway GFS
 04:57     21:50    Daglengte: 16:53 Vandaag
08:00 18.9° 1005.5 hPa 3.4 m/s 7.0 mm 18.7° 1004.7 hPa 1.8 m/s 6.4 mm 18.7° 1005.1 hPa 3.5 m/s 10.5 mm 19.1° 1005.6 hPa 3.9 m/s 0.0 mm 18.4° 1005.2 hPa 3.1 m/s
11:00 19.3° 1005.6 hPa 4.6 m/s 4.4 mm 19.5° 1004.1 hPa 4.7 m/s 9.0 mm 19.3° 1005.6 hPa 4.3 m/s 2.7 mm 19.6° 1005.8 hPa 4.4 m/s 0.0 mm 19.2° 1005.2 hPa 5.5 m/s
14:00 19.8° 1005.5 hPa 5.1 m/s 2.3 mm 19.4° 1004.5 hPa 6.1 m/s 12.2 mm 19.9° 1005.6 hPa 4.8 m/s 1.5 mm 20.4° 1005.6 hPa 4.8 m/s 0.0 mm 19.5° 1005.4 hPa 5.9 m/s
17:00 18.8° 1004.9 hPa 4.6 m/s 0.0 mm 19.3° 1004.0 hPa 5.8 m/s 12.6 mm 18.6° 1005.0 hPa 4.2 m/s 0.2 mm 20.0° 1004.6 hPa 5.0 m/s 0.0 mm 18.1° 1005.2 hPa 4.2 m/s
20:00 18.3° 1004.0 hPa 3.8 m/s 2.7 mm 18.6° 1003.0 hPa 4.5 m/s 12.8 mm 17.7° 1004.5 hPa 2.5 m/s 0.8 mm 19.1° 1004.0 hPa 4.2 m/s 0.0 mm 17.9° 1004.3 hPa 3.9 m/s
23:00 17.5° 1003.5 hPa 2.5 m/s 2.4 mm 17.4° 1002.7 hPa 3.6 m/s 13.4 mm 17.4° 1004.1 hPa 2.3 m/s 1.3 mm 18.5° 1003.4 hPa 3.1 m/s 0.0 mm 16.3° 1003.7 hPa 3.1 m/s
 04:59     21:48    Daglengte: 16:49 Morgen
02:00 17.3° 1002.1 hPa 2.4 m/s 5.6 mm 15.8° 1000.9 hPa 2.8 m/s 13.5 mm 17.2° 1002.8 hPa 2.1 m/s 1.7 mm 17.5° 1002.2 hPa 2.1 m/s 0.0 mm 16.0° 1002.3 hPa 2.5 m/s
05:00 16.9° 1000.8 hPa 2.4 m/s 1.2 mm 15.5° 999.1 hPa 3.1 m/s 13.5 mm 16.5° 1001.7 hPa 2.3 m/s 0.4 mm 17.4° 1000.9 hPa 1.3 m/s 0.0 mm 15.2° 1001.1 hPa 2.9 m/s
08:00 17.1° 999.6 hPa 3.8 m/s 2.7 mm 16.9° 997.2 hPa 5.0 m/s 13.7 mm 16.8° 999.9 hPa 3.0 m/s 1.0 mm 18.3° 1000.2 hPa 3.7 m/s 0.0 mm 15.7° 999.4 hPa 3.4 m/s
11:00 17.8° 998.8 hPa 4.2 m/s 7.7 mm 18.2° 996.2 hPa 6.1 m/s 22.9 mm 17.3° 999.2 hPa 3.5 m/s 3.1 mm 18.8° 999.9 hPa 3.7 m/s 0.0 mm 17.1° 998.6 hPa 4.5 m/s
14:00 17.9° 997.6 hPa 4.4 m/s 8.1 mm 17.5° 994.9 hPa 6.0 m/s 31.6 mm 17.0° 997.8 hPa 3.4 m/s 2.7 mm 19.2° 999.4 hPa 4.3 m/s 0.0 mm 17.7° 997.4 hPa 4.6 m/s
17:00 17.5° 996.6 hPa 4.9 m/s 10.2 mm 17.0° 994.6 hPa 8.2 m/s 36.2 mm 17.2° 996.6 hPa 3.6 m/s 1.4 mm 20.0° 998.7 hPa 6.4 m/s 0.0 mm 17.3° 996.1 hPa 5.5 m/s
20:00 17.1° 995.7 hPa 4.9 m/s 9.4 mm 17.1° 993.2 hPa 6.7 m/s 37.4 mm 16.8° 995.8 hPa 2.8 m/s 1.0 mm 19.1° 997.8 hPa 6.0 m/s 0.0 mm 16.5° 994.6 hPa 5.1 m/s
23:00 16.7° 994.2 hPa 3.7 m/s 4.9 mm 16.6° 991.7 hPa 5.1 m/s 37.9 mm 16.8° 994.8 hPa 0.7 m/s 0.1 mm 15.7° 993.3 hPa 5.2 m/s
 05:02     21:45    Daglengte: 16:43 Vrijdag 30 Jul
02:00 16.5° 993.0 hPa 3.9 m/s 14.4 mm 15.7° 989.6 hPa 6.3 m/s 39.4 mm 16.8° 993.8 hPa 1.5 m/s 0.0 mm 15.4° 992.0 hPa 5.0 m/s
05:00 16.1° 991.7 hPa 3.0 m/s 4.6 mm 15.9° 987.2 hPa 6.5 m/s 39.4 mm 17.0° 993.2 hPa 2.0 m/s 0.4 mm 14.6° 991.0 hPa 4.5 m/s
08:00 17.2° 991.5 hPa 3.9 m/s 15.1 mm 16.3° 986.1 hPa 4.1 m/s 40.8 mm 17.5° 993.6 hPa 4.5 m/s 2.3 mm 15.1° 990.9 hPa 5.6 m/s
11:00 21.0° 993.3 hPa 3.1 m/s 0.0 mm 19.8° 987.2 hPa 5.7 m/s 41.0 mm 21.2° 994.8 hPa 2.5 m/s 0.0 mm 17.2° 991.5 hPa 3.8 m/s
14:00 22.6° 994.2 hPa 2.2 m/s 4.6 mm 22.1° 989.2 hPa 3.7 m/s 41.0 mm 22.7° 995.4 hPa 1.8 m/s 0.2 mm 22.0° 992.8 hPa 2.2 m/s
17:00 22.2° 994.6 hPa 5.1 m/s 0.0 mm 22.1° 989.8 hPa 4.9 m/s 41.0 mm 22.2° 995.9 hPa 5.1 m/s 0.1 mm 21.3° 993.2 hPa 5.5 m/s
20:00 20.6° 994.5 hPa 3.3 m/s 0.0 mm 21.4° 989.6 hPa 3.2 m/s 41.0 mm 20.4° 995.8 hPa 3.3 m/s 0.0 mm 19.5° 993.3 hPa 4.5 m/s
23:00 18.3° 994.7 hPa 4.1 m/s 0.0 mm 16.9° 989.5 hPa 3.6 m/s 41.0 mm 18.6° 996.1 hPa 4.3 m/s 0.0 mm 18.0° 993.5 hPa 5.3 m/s
 05:04     21:43    Daglengte: 16:39 Zaterdag 31 Jul
02:00 17.4° 994.5 hPa 5.2 m/s 0.0 mm 16.2° 991.3 hPa 5.8 m/s 41.0 mm 17.7° 995.4 hPa 5.1 m/s 0.0 mm 17.0° 993.9 hPa 4.7 m/s
05:00 16.7° 993.7 hPa 4.8 m/s 31.8 mm 16.7° 993.7 hPa 4.8 m/s 31.8 mm
08:00 16.3° 993.6 hPa 3.8 m/s 31.8 mm 16.3° 993.6 hPa 3.8 m/s 31.8 mm
11:00 16.7° 994.0 hPa 5.0 m/s 31.9 mm 16.7° 994.0 hPa 5.0 m/s 31.9 mm
14:00 14.7° 995.0 hPa 6.0 m/s 32.1 mm 14.7° 995.0 hPa 6.0 m/s 32.1 mm
17:00 15.3° 995.6 hPa 4.5 m/s 32.3 mm 15.3° 995.6 hPa 4.5 m/s 32.3 mm
20:00 16.6° 995.7 hPa 3.0 m/s 32.3 mm 16.6° 995.7 hPa 3.0 m/s 32.3 mm
23:00 14.0° 996.4 hPa 3.9 m/s 32.3 mm 14.0° 996.4 hPa 3.9 m/s 32.3 mm
 05:06     21:41    Daglengte: 16:35 Zondag 01 Aug
02:00 11.7° 996.6 hPa 3.2 m/s 32.3 mm 11.7° 996.6 hPa 3.2 m/s 32.3 mm
05:00 11.7° 996.7 hPa 2.9 m/s 32.3 mm 11.7° 996.7 hPa 2.9 m/s 32.3 mm
08:00 14.1° 997.2 hPa 3.7 m/s 32.3 mm 14.1° 997.2 hPa 3.7 m/s 32.3 mm
11:00 17.1° 997.9 hPa 3.4 m/s 32.3 mm 17.1° 997.9 hPa 3.4 m/s 32.3 mm
14:00 16.9° 999.3 hPa 3.4 m/s 32.4 mm 16.9° 999.3 hPa 3.4 m/s 32.4 mm
17:00 17.8° 999.5 hPa 2.7 m/s 32.4 mm 17.8° 999.5 hPa 2.7 m/s 32.4 mm
20:00 17.4° 1000.3 hPa 2.8 m/s 32.4 mm 17.4° 1000.3 hPa 2.8 m/s 32.4 mm
23:00 13.0° 1001.6 hPa 3.0 m/s 32.5 mm 13.0° 1001.6 hPa 3.0 m/s 32.5 mm
 05:08     21:38    Daglengte: 16:30 Maandag 02 Aug
02:00 11.7° 1002.7 hPa 3.5 m/s 32.5 mm 11.7° 1002.7 hPa 3.5 m/s 32.5 mm
05:00 12.6° 1003.9 hPa 3.4 m/s 32.5 mm 12.6° 1003.9 hPa 3.4 m/s 32.5 mm
08:00 13.8° 1005.2 hPa 3.4 m/s 32.5 mm 13.8° 1005.2 hPa 3.4 m/s 32.5 mm
11:00 17.4° 1006.2 hPa 1.8 m/s 32.5 mm 17.4° 1006.2 hPa 1.8 m/s 32.5 mm
14:00 18.9° 1006.3 hPa 2.4 m/s 32.5 mm 18.9° 1006.3 hPa 2.4 m/s 32.5 mm
17:00 19.0° 1006.4 hPa 3.4 m/s 32.5 mm 19.0° 1006.4 hPa 3.4 m/s 32.5 mm
20:00 17.0° 1006.3 hPa 2.8 m/s 32.5 mm 17.0° 1006.3 hPa 2.8 m/s 32.5 mm
23:00 15.1° 1006.5 hPa 2.3 m/s 32.7 mm 15.1° 1006.5 hPa 2.3 m/s 32.7 mm
 05:10     21:36    Daglengte: 16:26 Dinsdag 03 Aug
02:00 15.1° 1006.9 hPa 4.5 m/s 35.0 mm 15.1° 1006.9 hPa 4.5 m/s 35.0 mm
05:00 14.1° 1006.5 hPa 3.8 m/s 35.4 mm 14.1° 1006.5 hPa 3.8 m/s 35.4 mm
08:00 14.7° 1006.7 hPa 3.8 m/s 35.4 mm 14.7° 1006.7 hPa 3.8 m/s 35.4 mm
11:00 17.2° 1006.5 hPa 3.1 m/s 35.8 mm 17.2° 1006.5 hPa 3.1 m/s 35.8 mm
14:00 17.6° 1006.4 hPa 2.2 m/s 37.3 mm 17.6° 1006.4 hPa 2.2 m/s 37.3 mm
17:00 18.3° 1006.4 hPa 1.2 m/s 38.4 mm 18.3° 1006.4 hPa 1.2 m/s 38.4 mm
20:00 16.8° 1006.9 hPa 3.5 m/s 39.8 mm 16.8° 1006.9 hPa 3.5 m/s 39.8 mm
23:00 15.3° 1008.0 hPa 2.0 m/s 40.1 mm 15.3° 1008.0 hPa 2.0 m/s 40.1 mm
 05:13     21:33    Daglengte: 16:20 Woensdag 04 Aug
02:00 14.4° 1008.5 hPa 1.2 m/s 40.3 mm 14.4° 1008.5 hPa 1.2 m/s 40.3 mm
05:00 13.3° 1008.6 hPa 1.7 m/s 40.6 mm 13.3° 1008.6 hPa 1.7 m/s 40.6 mm
08:00 15.0° 1009.4 hPa 2.1 m/s 40.6 mm 15.0° 1009.4 hPa 2.1 m/s 40.6 mm
14:00 19.9° 1009.0 hPa 3.7 m/s 40.9 mm 19.9° 1009.0 hPa 3.7 m/s 40.9 mm
20:00 17.8° 1009.2 hPa 5.8 m/s 41.0 mm 17.8° 1009.2 hPa 5.8 m/s 41.0 mm
 05:15     21:31    Daglengte: 16:16 Donderdag 05 Aug
02:00 15.7° 1008.5 hPa 3.3 m/s 41.4 mm 15.7° 1008.5 hPa 3.3 m/s 41.4 mm
08:00 15.5° 1006.8 hPa 3.7 m/s 42.9 mm 15.5° 1006.8 hPa 3.7 m/s 42.9 mm
14:00 20.3° 1004.3 hPa 3.1 m/s 42.9 mm 20.3° 1004.3 hPa 3.1 m/s 42.9 mm
20:00 17.9° 1003.2 hPa 2.6 m/s 43.0 mm 17.9° 1003.2 hPa 2.6 m/s 43.0 mm
 05:17     21:28    Daglengte: 16:11 Vrijdag 06 Aug
02:00 14.0° 1003.2 hPa 1.1 m/s 43.0 mm 14.0° 1003.2 hPa 1.1 m/s 43.0 mm
08:00 15.6° 1002.5 hPa 2.2 m/s 43.0 mm 15.6° 1002.5 hPa 2.2 m/s 43.0 mm
14:00 20.4° 1002.0 hPa 0.9 m/s 43.0 mm 20.4° 1002.0 hPa 0.9 m/s 43.0 mm
20:00 18.4° 1000.9 hPa 0.4 m/s 43.2 mm 18.4° 1000.9 hPa 0.4 m/s 43.2 mm
 05:19     21:26    Daglengte: 16:07 Zaterdag 07 Aug
02:00 14.6° 1004.4 hPa 1.3 m/s 1.5 mm
08:00 15.1° 1004.1 hPa 1.1 m/s 1.9 mm
14:00 17.9° 1003.7 hPa 1.3 m/s 2.4 mm
20:00 17.0° 1003.5 hPa 1.5 m/s 1.2 mm
 05:22     21:23    Daglengte: 16:01 Zondag 08 Aug
02:00 14.7° 1004.7 hPa 0.8 m/s 0.8 mm
08:00 15.3° 1004.9 hPa 0.7 m/s 1.4 mm
14:00 18.1° 1005.4 hPa 2.5 m/s 2.3 mm
20:00 17.2° 1005.7 hPa 2.7 m/s 2.8 mm
 05:24     21:21    Daglengte: 15:57 Maandag 09 Aug
02:00 15.0° 1007.4 hPa 2.0 m/s 0.9 mm
08:00 15.7° 1008.1 hPa 1.4 m/s 1.2 mm
14:00 18.8° 1008.9 hPa 3.1 m/s 1.4 mm
20:00 17.5° 1009.0 hPa 3.0 m/s 1.1 mm
 05:26     21:18    Daglengte: 15:52 Dinsdag 10 Aug
02:00 15.1° 1010.6 hPa 1.3 m/s 0.8 mm
08:00 15.6° 1011.3 hPa 0.7 m/s 0.5 mm
14:00 18.8° 1011.6 hPa 2.5 m/s 1.2 mm
20:00 17.5° 1011.5 hPa 2.4 m/s 0.9 mm
 05:29     21:15    Daglengte: 15:46 Woensdag 11 Aug
02:00 15.0° 1012.6 hPa 0.9 m/s 0.1 mm
08:00 15.5° 1012.5 hPa 0.4 m/s 0.2 mm